This is the latest recevied weather packets stored in our database for station/object OK2ILA-1. If no packets are shown the sender has not sent any weather packets the latest 10 day(s).
| Time | Temp. | Humidity | Pressure | Rain* | Wind** | Luminosity | Snow |
|---|---|---|---|---|---|---|---|
| 1788550558 | 25° C | 100% | 1012.3 hPa | 0 mm | - | - | - |
| 1788546955 | 26.11° C | 100% | 1012.9 hPa | 0 mm | - | - | - |
| 1788541910 | 26.11° C | 100% | 1012.1 hPa | 0 mm | - | - | - |
| 1788540469 | 26.67° C | 100% | 1012.2 hPa | 0 mm | - | - | - |
| 1788538306 | 27.22° C | 100% | 1012.3 hPa | 0 mm | - | - | - |
| 1788536331 | 27.78° C | 100% | 1012.8 hPa | 0 mm | - | - | - |
| 1788535610 | 27.78° C | 100% | 1013.1 hPa | 0 mm | - | - | - |
| 1788534169 | 27.22° C | 100% | 1013.6 hPa | 0 mm | - | - | - |
| 1788533448 | 27.22° C | 100% | 1013.8 hPa | 0 mm | - | - | - |
| 1788532727 | 27.22° C | 100% | 1013.8 hPa | 0 mm | - | - | - |
| 1788532006 | 26.67° C | 100% | 1013.9 hPa | 0 mm | - | - | - |
| 1788531286 | 26.67° C | 100% | 1014.3 hPa | 0 mm | - | - | - |
| 1788530565 | 26.67° C | 100% | 1014.5 hPa | 0 mm | - | - | - |
| 1788529124 | 26.67° C | 100% | 1014.4 hPa | 0 mm | - | - | - |
| 1788528403 | 26.67° C | 100% | 1014.7 hPa | 0 mm | - | - | - |
| 1788526962 | 26.67° C | 100% | 1015.1 hPa | 0 mm | - | - | - |
| 1788524800 | 25.56° C | 100% | 1015.5 hPa | 0 mm | - | - | - |
| 1788524079 | 25.56° C | 100% | 1015.7 hPa | 0 mm | - | - | - |
| 1788522638 | 26.67° C | 100% | 1016.1 hPa | 0 mm | - | - | - |
| 1788521917 | 26.67° C | 100% | 1016.3 hPa | 0 mm | - | - | - |
| 1788521196 | 26.11° C | 100% | 1016.4 hPa | 0 mm | - | - | - |
| 1788520476 | 25.56° C | 100% | 1016.8 hPa | 0 mm | - | - | - |
| 1788518313 | 24.44° C | 100% | 1017.3 hPa | 0 mm | - | - | - |
| 1788517593 | 23.89° C | 100% | 1017.4 hPa | 0 mm | - | - | - |
| 1788516872 | 23.89° C | 100% | 1017.5 hPa | 0 mm | - | - | - |
* Rain latest hour (hover to see other rain measurements)
** Current wind speed in m/s (hover to see current wind gust speed)